Time,TemperatureF,DewpointF,PressureIn,WindDirection,WindDirectionDegrees,WindSpeedMPH,WindSpeedGustMPH,Humidity,HourlyPrecipIn,Conditions,Clouds,dailyrainin,SoftwareType,DateUTC
2013-06-26 00:02:00,68.1,63.1,29.56,SSW,213,0.0,10.0,84,0.00,,,0.00,WUHU216DAVISVP2,2013-06-26 05:02:00,
2013-06-26 00:07:00,68.2,63.2,29.55,SSW,205,1.0,6.0,84,0.00,,,0.00,WUHU216DAVISVP2,2013-06-26 05:07:00,
2013-06-26 00:12:00,68.4,63.7,29.56,SSW,193,2.0,6.0,85,0.00,,,0.00,WUHU216DAVISVP2,2013-06-26 05:12:00,
2013-06-26 00:17:00,68.9,64.2,29.56,South,180,0.0,10.0,85,0.00,,,0.00,WUHU216DAVISVP2,2013-06-26 05:17:00,
2013-06-26 00:22:00,69.3,63.3,29.56,SE,135,2.0,11.0,81,0.00,,,0.00,WUHU216DAVISVP2,2013-06-26 05:22:00,
2013-06-26 00:27:00,69.5,62.4,29.55,SE,130,0.0,11.0,78,0.00,,,0.00,WUHU216DAVISVP2,2013-06-26 05:27:00,
2013-06-26 00:32:00,69.7,63.0,29.55,ESE,121,0.0,5.0,79,0.00,,,0.00,WUHU216DAVISVP2,2013-06-26 05:32:00,
2013-06-26 00:37:00,69.5,64.2,29.55,SSE,155,0.0,5.0,83,0.00,,,0.00,WUHU216DAVISVP2,2013-06-26 05:37:00,
2013-06-26 00:42:00,70.1,65.7,29.54,East,101,2.0,5.0,86,0.00,,,0.00,WUHU216DAVISVP2,2013-06-26 05:42:00,
2013-06-26 00:47:00,71.2,67.5,29.55,ESE,119,0.0,5.0,88,0.00,,,0.00,WUHU216DAVISVP2,2013-06-26 05:47:00,
2013-06-26 00:52:00,70.9,66.8,29.54,NNE,32,0.0,3.0,87,0.00,,,0.00,WUHU216DAVISVP2,2013-06-26 05:52:00,
2013-06-26 00:57:00,70.8,67.1,29.53,ENE,69,0.0,3.0,88,0.00,,,0.00,WUHU216DAVISVP2,2013-06-26 05:57:00,
2013-06-26 01:02:00,71.3,67.9,29.53,ESE,119,0.0,3.0,89,0.00,,,0.00,WUHU216DAVISVP2,2013-06-26 06:02:00,
2013-06-26 01:07:00,71.8,68.4,29.52,SE,130,0.0,4.0,89,0.00,,,0.00,WUHU216DAVISVP2,2013-06-26 06:07:00,
2013-06-26 01:12:00,71.8,68.4,29.52,ESE,121,0.0,4.0,89,0.00,,,0.00,WUHU216DAVISVP2,2013-06-26 06:12:00,
2013-06-26 01:17:00,71.8,68.4,29.52,ESE,121,0.0,2.0,89,0.00,,,0.00,WUHU216DAVISVP2,2013-06-26 06:17:00,
2013-06-26 01:22:00,71.6,68.2,29.51,ESE,121,0.0,0.0,89,0.00,,,0.00,WUHU216DAVISVP2,2013-06-26 06:22:00,
2013-06-26 01:27:00,71.3,67.9,29.52,ESE,121,0.0,0.0,89,0.00,,,0.00,WUHU216DAVISVP2,2013-06-26 06:27:00,
2013-06-26 01:32:00,71.1,67.7,29.56,SSW,200,1.0,2.0,89,0.00,,,0.00,WUHU216DAVISVP2,2013-06-26 06:32:00,
2013-06-26 01:37:00,69.4,65.4,29.59,SSW,195,8.0,19.0,87,0.00,,,0.00,WUHU216DAVISVP2,2013-06-26 06:37:00,
2013-06-26 01:42:00,67.8,63.8,29.63,West,259,0.0,19.0,87,0.00,,,0.00,WUHU216DAVISVP2,2013-06-26 06:42:00,
2013-06-26 01:47:00,67.9,64.2,29.64,SW,236,2.0,16.0,88,0.00,,,0.00,WUHU216DAVISVP2,2013-06-26 06:47:00,
2013-06-26 01:52:00,68.0,64.3,29.64,South,186,0.0,11.0,88,0.00,,,0.00,WUHU216DAVISVP2,2013-06-26 06:52:00,
2013-06-26 01:57:00,68.1,64.7,29.63,WSW,242,0.0,1.0,89,0.00,,,0.00,WUHU216DAVISVP2,2013-06-26 06:57:00,
2013-06-26 02:02:00,67.8,64.1,29.65,WSW,243,0.0,1.0,88,0.00,,,0.00,WUHU216DAVISVP2,2013-06-26 07:02:00,
2013-06-26 02:07:00,67.8,64.1,29.64,NW,320,0.0,2.0,88,0.00,,,0.00,WUHU216DAVISVP2,2013-06-26 07:07:00,
2013-06-26 02:12:00,67.7,64.3,29.64,NW,322,0.0,2.0,89,0.00,,,0.00,WUHU216DAVISVP2,2013-06-26 07:12:00,
2013-06-26 02:17:00,66.4,62.7,29.63,NNE,19,0.0,5.0,88,0.00,,,0.00,WUHU216DAVISVP2,2013-06-26 07:17:00,
2013-06-26 02:22:00,65.4,61.7,29.62,NNE,19,0.0,5.0,88,0.00,,,0.00,WUHU216DAVISVP2,2013-06-26 07:22:00,
2013-06-26 02:27:00,64.7,61.1,29.62,NNE,17,0.0,4.0,88,0.00,,,0.00,WUHU216DAVISVP2,2013-06-26 07:27:00,
2013-06-26 02:32:00,64.2,60.6,29.61,NE,37,0.0,6.0,88,0.00,,,0.00,WUHU216DAVISVP2,2013-06-26 07:32:00,
2013-06-26 02:37:00,64.0,60.4,29.59,NNE,21,0.0,10.0,88,0.00,,,0.00,WUHU216DAVISVP2,2013-06-26 07:37:00,
2013-06-26 02:42:00,63.8,60.5,29.58,NNE,18,5.0,10.0,89,0.00,,,0.00,WUHU216DAVISVP2,2013-06-26 07:42:00,
2013-06-26 02:47:00,63.9,60.6,29.57,NNE,32,1.0,7.0,89,0.00,,,0.00,WUHU216DAVISVP2,2013-06-26 07:47:00,
2013-06-26 02:52:00,64.0,60.7,29.56,NNE,22,5.0,7.0,89,0.00,,,0.00,WUHU216DAVISVP2,2013-06-26 07:52:00,
2013-06-26 02:57:00,64.3,61.0,29.56,East,82,0.0,7.0,89,0.00,,,0.00,WUHU216DAVISVP2,2013-06-26 07:57:00,
2013-06-26 03:02:00,64.4,61.1,29.58,ENE,58,0.0,6.0,89,0.00,,,0.00,WUHU216DAVISVP2,2013-06-26 08:02:00,
2013-06-26 03:07:00,64.4,61.1,29.59,ENE,57,0.0,0.0,89,0.00,,,0.00,WUHU216DAVISVP2,2013-06-26 08:07:00,
2013-06-26 03:12:00,64.4,61.1,29.62,ENE,57,0.0,0.0,89,0.00,,,0.00,WUHU216DAVISVP2,2013-06-26 08:12:00,
2013-06-26 03:17:00,64.5,61.2,29.62,ENE,58,0.0,0.0,89,0.00,,,0.00,WUHU216DAVISVP2,2013-06-26 08:17:00,
2013-06-26 03:22:00,64.6,61.3,29.61,ENE,58,0.0,0.0,89,0.00,,,0.00,WUHU216DAVISVP2,2013-06-26 08:22:00,
2013-06-26 03:27:00,64.6,61.3,29.57,ENE,57,0.0,0.0,89,0.00,,,0.00,WUHU216DAVISVP2,2013-06-26 08:27:00,
2013-06-26 03:32:00,64.4,61.1,29.56,ENE,58,0.0,0.0,89,0.00,,,0.00,WUHU216DAVISVP2,2013-06-26 08:32:00,
2013-06-26 03:37:00,64.5,61.2,29.56,SSE,166,3.0,6.0,89,0.00,,,0.00,WUHU216DAVISVP2,2013-06-26 08:37:00,
2013-06-26 03:42:00,64.4,61.1,29.55,South,189,0.0,6.0,89,0.00,,,0.00,WUHU216DAVISVP2,2013-06-26 08:42:00,
2013-06-26 03:47:00,64.4,61.1,29.55,South,186,0.0,6.0,89,0.00,,,0.00,WUHU216DAVISVP2,2013-06-26 08:47:00,
2013-06-26 03:52:00,64.4,61.1,29.55,South,186,0.0,3.0,89,0.00,,,0.00,WUHU216DAVISVP2,2013-06-26 08:52:00,
2013-06-26 03:57:00,64.4,61.1,29.56,SSW,192,0.0,3.0,89,0.00,,,0.00,WUHU216DAVISVP2,2013-06-26 08:57:00,
2013-06-26 04:02:00,64.3,61.0,29.56,SSW,192,0.0,0.0,89,0.00,,,0.00,WUHU216DAVISVP2,2013-06-26 09:02:00,
2013-06-26 04:07:00,64.2,60.9,29.56,SSW,194,0.0,5.0,89,0.00,,,0.00,WUHU216DAVISVP2,2013-06-26 09:07:00,
2013-06-26 04:12:00,64.1,61.1,29.56,South,191,3.0,6.0,90,0.00,,,0.00,WUHU216DAVISVP2,2013-06-26 09:12:00,
2013-06-26 04:17:00,64.0,61.0,29.55,South,170,0.0,6.0,90,0.00,,,0.00,WUHU216DAVISVP2,2013-06-26 09:17:00,
2013-06-26 04:22:00,63.9,60.9,29.55,South,173,0.0,5.0,90,0.00,,,0.00,WUHU216DAVISVP2,2013-06-26 09:22:00,
2013-06-26 04:27:00,63.9,60.9,29.55,South,172,0.0,3.0,90,0.00,,,0.00,WUHU216DAVISVP2,2013-06-26 09:27:00,
2013-06-26 04:32:00,63.9,60.9,29.55,South,173,0.0,0.0,90,0.00,,,0.00,WUHU216DAVISVP2,2013-06-26 09:32:00,
2013-06-26 04:37:00,63.8,60.5,29.56,South,173,0.0,0.0,89,0.00,,,0.00,WUHU216DAVISVP2,2013-06-26 09:37:00,
2013-06-26 04:42:00,63.8,60.5,29.56,South,173,0.0,0.0,89,0.00,,,0.00,WUHU216DAVISVP2,2013-06-26 09:42:00,
2013-06-26 04:47:00,63.7,60.4,29.56,South,173,4.0,4.0,89,0.00,,,0.00,WUHU216DAVISVP2,2013-06-26 09:47:00,
2013-06-26 04:52:00,63.7,60.7,29.57,South,172,0.0,4.0,90,0.00,,,0.00,WUHU216DAVISVP2,2013-06-26 09:52:00,
2013-06-26 04:57:00,63.7,60.7,29.58,South,173,0.0,4.0,90,0.00,,,0.00,WUHU216DAVISVP2,2013-06-26 09:57:00,
2013-06-26 05:02:00,63.7,60.7,29.59,South,173,0.0,0.0,90,0.00,,,0.00,WUHU216DAVISVP2,2013-06-26 10:02:00,
2013-06-26 05:07:00,63.7,60.7,29.58,South,173,0.0,0.0,90,0.00,,,0.00,WUHU216DAVISVP2,2013-06-26 10:07:00,
2013-06-26 05:12:00,63.7,60.7,29.59,South,173,0.0,0.0,90,0.00,,,0.00,WUHU216DAVISVP2,2013-06-26 10:12:00,
2013-06-26 05:17:00,63.7,60.7,29.59,South,173,0.0,0.0,90,0.00,,,0.00,WUHU216DAVISVP2,2013-06-26 10:17:00,
2013-06-26 05:22:00,63.6,60.6,29.59,South,173,0.0,0.0,90,0.00,,,0.00,WUHU216DAVISVP2,2013-06-26 10:22:00,
2013-06-26 05:27:00,63.6,60.6,29.59,South,173,0.0,0.0,90,0.00,,,0.00,WUHU216DAVISVP2,2013-06-26 10:27:00,
2013-06-26 05:32:00,63.5,60.5,29.59,South,173,0.0,0.0,90,0.00,,,0.00,WUHU216DAVISVP2,2013-06-26 10:32:00,
2013-06-26 05:37:00,63.6,60.6,29.59,South,173,0.0,0.0,90,0.00,,,0.00,WUHU216DAVISVP2,2013-06-26 10:37:00,
2013-06-26 05:42:00,63.7,60.7,29.60,South,173,0.0,0.0,90,0.00,,,0.00,WUHU216DAVISVP2,2013-06-26 10:42:00,
2013-06-26 05:47:00,64.0,61.0,29.59,South,173,0.0,0.0,90,0.00,,,0.00,WUHU216DAVISVP2,2013-06-26 10:47:00,
2013-06-26 05:52:00,64.0,61.0,29.60,South,173,0.0,0.0,90,0.00,,,0.00,WUHU216DAVISVP2,2013-06-26 10:52:00,
2013-06-26 05:57:00,64.1,61.1,29.60,South,173,0.0,0.0,90,0.00,,,0.00,WUHU216DAVISVP2,2013-06-26 10:57:00,
2013-06-26 06:02:00,64.1,61.1,29.60,South,174,0.0,0.0,90,0.00,,,0.00,WUHU216DAVISVP2,2013-06-26 11:02:00,
2013-06-26 06:07:00,64.1,61.1,29.60,South,173,0.0,0.0,90,0.00,,,0.00,WUHU216DAVISVP2,2013-06-26 11:07:00,
2013-06-26 06:12:00,64.1,61.1,29.60,South,173,0.0,0.0,90,0.00,,,0.00,WUHU216DAVISVP2,2013-06-26 11:12:00,
2013-06-26 06:17:00,64.1,61.1,29.61,South,173,0.0,0.0,90,0.00,,,0.00,WUHU216DAVISVP2,2013-06-26 11:17:00,
2013-06-26 06:22:00,64.2,61.2,29.61,South,173,0.0,0.0,90,0.00,,,0.00,WUHU216DAVISVP2,2013-06-26 11:22:00,
2013-06-26 06:27:00,64.3,61.3,29.60,South,174,0.0,0.0,90,0.00,,,0.00,WUHU216DAVISVP2,2013-06-26 11:27:00,
2013-06-26 06:32:00,64.4,61.4,29.60,South,173,0.0,0.0,90,0.00,,,0.00,WUHU216DAVISVP2,2013-06-26 11:32:00,
2013-06-26 06:37:00,64.5,61.5,29.61,South,173,0.0,0.0,90,0.00,,,0.00,WUHU216DAVISVP2,2013-06-26 11:37:00,
2013-06-26 06:42:00,64.4,61.4,29.61,South,173,0.0,0.0,90,0.00,,,0.00,WUHU216DAVISVP2,2013-06-26 11:42:00,
2013-06-26 06:47:00,64.5,61.5,29.61,South,173,0.0,0.0,90,0.00,,,0.00,WUHU216DAVISVP2,2013-06-26 11:47:00,
2013-06-26 06:52:00,64.6,61.6,29.61,South,173,0.0,0.0,90,0.00,,,0.00,WUHU216DAVISVP2,2013-06-26 11:52:00,
2013-06-26 06:57:00,64.7,61.7,29.60,South,173,0.0,0.0,90,0.00,,,0.00,WUHU216DAVISVP2,2013-06-26 11:57:00,
2013-06-26 07:02:00,64.9,61.9,29.61,South,173,0.0,0.0,90,0.00,,,0.00,WUHU216DAVISVP2,2013-06-26 12:02:00,
2013-06-26 07:07:00,65.0,62.0,29.62,South,173,0.0,0.0,90,0.00,,,0.00,WUHU216DAVISVP2,2013-06-26 12:07:00,
2013-06-26 07:12:00,65.2,62.2,29.62,South,173,0.0,0.0,90,0.00,,,0.00,WUHU216DAVISVP2,2013-06-26 12:12:00,
2013-06-26 07:17:00,65.3,62.3,29.62,South,173,0.0,0.0,90,0.00,,,0.00,WUHU216DAVISVP2,2013-06-26 12:17:00,
2013-06-26 07:22:00,65.3,62.3,29.62,South,173,0.0,0.0,90,0.00,,,0.00,WUHU216DAVISVP2,2013-06-26 12:22:00,
2013-06-26 07:27:00,65.4,62.4,29.62,South,173,0.0,0.0,90,0.00,,,0.00,WUHU216DAVISVP2,2013-06-26 12:27:00,
2013-06-26 07:32:00,65.5,62.5,29.62,South,173,0.0,0.0,90,0.00,,,0.00,WUHU216DAVISVP2,2013-06-26 12:32:00,
2013-06-26 07:37:00,65.6,62.6,29.62,South,173,0.0,0.0,90,0.00,,,0.00,WUHU216DAVISVP2,2013-06-26 12:37:00,
2013-06-26 07:42:00,65.8,62.8,29.62,South,173,0.0,0.0,90,0.00,,,0.00,WUHU216DAVISVP2,2013-06-26 12:42:00,
2013-06-26 07:47:00,65.9,62.9,29.63,South,173,0.0,0.0,90,0.00,,,0.00,WUHU216DAVISVP2,2013-06-26 12:47:00,
2013-06-26 07:52:00,66.0,63.0,29.63,South,174,0.0,0.0,90,0.00,,,0.00,WUHU216DAVISVP2,2013-06-26 12:52:00,
2013-06-26 07:57:00,66.1,63.1,29.62,South,174,0.0,0.0,90,0.00,,,0.00,WUHU216DAVISVP2,2013-06-26 12:57:00,
2013-06-26 08:02:00,66.2,63.2,29.62,South,173,0.0,0.0,90,0.00,,,0.00,WUHU216DAVISVP2,2013-06-26 13:02:00,
2013-06-26 08:07:00,66.4,63.4,29.62,South,173,0.0,0.0,90,0.00,,,0.00,WUHU216DAVISVP2,2013-06-26 13:07:00,
2013-06-26 08:12:00,66.6,63.6,29.62,South,173,0.0,0.0,90,0.00,,,0.00,WUHU216DAVISVP2,2013-06-26 13:12:00,
2013-06-26 08:17:00,66.8,63.8,29.62,South,173,0.0,3.0,90,0.00,,,0.00,WUHU216DAVISVP2,2013-06-26 13:17:00,
2013-06-26 08:22:00,67.3,63.9,29.62,South,173,0.0,3.0,89,0.00,,,0.00,WUHU216DAVISVP2,2013-06-26 13:22:00,
2013-06-26 08:27:00,67.5,64.1,29.62,South,174,0.0,0.0,89,0.00,,,0.00,WUHU216DAVISVP2,2013-06-26 13:27:00,
2013-06-26 08:32:00,67.7,64.3,29.62,South,174,0.0,0.0,89,0.00,,,0.00,WUHU216DAVISVP2,2013-06-26 13:32:00,
2013-06-26 08:37:00,68.0,64.6,29.63,South,173,0.0,0.0,89,0.00,,,0.00,WUHU216DAVISVP2,2013-06-26 13:37:00,
2013-06-26 08:42:00,68.4,65.0,29.63,South,177,0.0,0.0,89,0.00,,,0.00,WUHU216DAVISVP2,2013-06-26 13:42:00,
2013-06-26 08:47:00,68.6,64.9,29.63,South,176,0.0,0.0,88,0.00,,,0.00,WUHU216DAVISVP2,2013-06-26 13:47:00,
2013-06-26 08:52:00,68.7,65.0,29.64,South,178,0.0,0.0,88,0.00,,,0.00,WUHU216DAVISVP2,2013-06-26 13:52:00,
2013-06-26 08:57:00,69.0,65.0,29.64,South,178,0.0,0.0,87,0.00,,,0.00,WUHU216DAVISVP2,2013-06-26 13:57:00,
2013-06-26 09:02:00,69.4,65.4,29.64,South,178,0.0,0.0,87,0.00,,,0.00,WUHU216DAVISVP2,2013-06-26 14:02:00,
2013-06-26 09:07:00,69.6,65.2,29.64,South,178,0.0,0.0,86,0.00,,,0.00,WUHU216DAVISVP2,2013-06-26 14:07:00,
2013-06-26 09:12:00,69.9,65.5,29.64,South,178,0.0,0.0,86,0.00,,,0.00,WUHU216DAVISVP2,2013-06-26 14:12:00,
2013-06-26 09:17:00,70.0,65.3,29.64,South,179,0.0,1.0,85,0.00,,,0.00,WUHU216DAVISVP2,2013-06-26 14:17:00,
2013-06-26 09:22:00,69.9,64.9,29.64,South,178,0.0,1.0,84,0.00,,,0.00,WUHU216DAVISVP2,2013-06-26 14:22:00,
2013-06-26 09:27:00,70.1,65.1,29.65,South,179,0.0,0.0,84,0.00,,,0.00,WUHU216DAVISVP2,2013-06-26 14:27:00,
2013-06-26 09:32:00,69.9,64.9,29.64,SW,218,0.0,4.0,84,0.00,,,0.00,WUHU216DAVISVP2,2013-06-26 14:32:00,
2013-06-26 09:37:00,69.9,64.9,29.64,WNW,286,0.0,4.0,84,0.00,,,0.00,WUHU216DAVISVP2,2013-06-26 14:37:00,
2013-06-26 09:42:00,70.4,65.0,29.65,WNW,294,0.0,4.0,83,0.00,,,0.00,WUHU216DAVISVP2,2013-06-26 14:42:00,
2013-06-26 09:43:00,70.4,65.0,29.65,WNW,294,0.0,4.0,83,0.00,,,0.00,WUHU216DAVISVP2,2013-06-26 14:43:00,
2013-06-26 09:48:00,70.6,65.2,29.65,WNW,298,1.0,4.0,83,0.00,,,0.00,WUHU216DAVISVP2,2013-06-26 14:48:00,
2013-06-26 09:53:00,70.7,65.0,29.64,WNW,295,0.0,6.0,82,0.00,,,0.00,WUHU216DAVISVP2,2013-06-26 14:53:00,
2013-06-26 09:58:00,71.0,65.3,29.64,West,261,0.0,6.0,82,0.00,,,0.00,WUHU216DAVISVP2,2013-06-26 14:58:00,
2013-06-26 10:03:00,71.1,65.0,29.65,West,261,0.0,5.0,81,0.00,,,0.00,WUHU216DAVISVP2,2013-06-26 15:03:00,
2013-06-26 10:08:00,71.4,65.3,29.65,West,260,0.0,0.0,81,0.00,,,0.00,WUHU216DAVISVP2,2013-06-26 15:08:00,
2013-06-26 10:13:00,71.8,65.4,29.65,West,261,0.0,0.0,80,0.00,,,0.00,WUHU216DAVISVP2,2013-06-26 15:13:00,
2013-06-26 10:18:00,72.2,66.1,29.65,West,261,0.0,0.0,81,0.00,,,0.00,WUHU216DAVISVP2,2013-06-26 15:18:00,
2013-06-26 10:23:00,73.1,67.0,29.66,West,263,0.0,4.0,81,0.00,,,0.00,WUHU216DAVISVP2,2013-06-26 15:23:00,
2013-06-26 10:28:00,73.7,66.5,29.66,West,279,0.0,9.0,78,0.00,,,0.00,WUHU216DAVISVP2,2013-06-26 15:28:00,
2013-06-26 10:33:00,74.1,66.6,29.66,West,279,0.0,9.0,77,0.00,,,0.00,WUHU216DAVISVP2,2013-06-26 15:33:00,
2013-06-26 10:38:00,74.6,67.4,29.66,West,279,0.0,0.0,78,0.00,,,0.00,WUHU216DAVISVP2,2013-06-26 15:38:00,
2013-06-26 10:43:00,74.9,67.3,29.67,West,277,0.0,0.0,77,0.00,,,0.00,WUHU216DAVISVP2,2013-06-26 15:43:00,
2013-06-26 10:48:00,75.6,67.3,29.67,West,280,0.0,5.0,75,0.00,,,0.00,WUHU216DAVISVP2,2013-06-26 15:48:00,
2013-06-26 10:53:00,76.1,66.6,29.67,WNW,299,1.0,7.0,72,0.00,,,0.00,WUHU216DAVISVP2,2013-06-26 15:53:00,
2013-06-26 10:58:00,75.7,66.2,29.67,West,273,2.0,7.0,72,0.00,,,0.00,WUHU216DAVISVP2,2013-06-26 15:58:00,
2013-06-26 11:03:00,76.2,67.1,29.67,NW,326,1.0,6.0,73,0.00,,,0.00,WUHU216DAVISVP2,2013-06-26 16:03:00,
2013-06-26 11:08:00,76.9,67.0,29.67,WNW,294,0.0,6.0,71,0.00,,,0.00,WUHU216DAVISVP2,2013-06-26 16:08:00,
2013-06-26 11:13:00,77.3,66.6,29.67,WNW,293,0.0,4.0,69,0.00,,,0.00,WUHU216DAVISVP2,2013-06-26 16:13:00,
2013-06-26 11:18:00,77.1,66.4,29.67,WNW,288,0.0,5.0,69,0.00,,,0.00,WUHU216DAVISVP2,2013-06-26 16:18:00,
2013-06-26 11:23:00,77.8,66.6,29.68,WNW,284,2.0,9.0,68,0.00,,,0.00,WUHU216DAVISVP2,2013-06-26 16:23:00,
2013-06-26 11:28:00,78.3,66.7,29.68,West,276,2.0,9.0,67,0.00,,,0.00,WUHU216DAVISVP2,2013-06-26 16:28:00,
2013-06-26 11:33:00,78.2,67.0,29.68,WSW,254,0.0,6.0,68,0.00,,,0.00,WUHU216DAVISVP2,2013-06-26 16:33:00,
2013-06-26 11:38:00,78.0,66.8,29.68,WNW,298,0.0,5.0,68,0.00,,,0.00,WUHU216DAVISVP2,2013-06-26 16:38:00,
2013-06-26 11:43:00,78.3,67.1,29.69,WNW,290,3.0,6.0,68,0.00,,,0.00,WUHU216DAVISVP2,2013-06-26 16:43:00,
2013-06-26 11:48:00,78.7,67.1,29.69,West,275,3.0,7.0,67,0.00,,,0.00,WUHU216DAVISVP2,2013-06-26 16:48:00,
2013-06-26 11:53:00,79.1,67.0,29.68,WNW,298,1.0,11.0,66,0.00,,,0.00,WUHU216DAVISVP2,2013-06-26 16:53:00,
2013-06-26 11:58:00,79.4,66.8,29.68,WNW,284,0.0,11.0,65,0.00,,,0.00,WUHU216DAVISVP2,2013-06-26 16:58:00,
2013-06-26 12:03:00,78.7,66.6,29.68,NW,308,0.0,6.0,66,0.00,,,0.00,WUHU216DAVISVP2,2013-06-26 17:03:00,
2013-06-26 12:08:00,78.6,67.0,29.69,WNW,297,1.0,5.0,67,0.00,,,0.00,WUHU216DAVISVP2,2013-06-26 17:08:00,
2013-06-26 12:13:00,79.4,67.3,29.69,WNW,298,0.0,5.0,66,0.00,,,0.00,WUHU216DAVISVP2,2013-06-26 17:13:00,
2013-06-26 12:18:00,80.1,68.0,29.69,West,278,0.0,5.0,66,0.00,,,0.00,WUHU216DAVISVP2,2013-06-26 17:18:00,
2013-06-26 12:23:00,80.8,68.2,29.69,West,274,0.0,10.0,65,0.00,,,0.00,WUHU216DAVISVP2,2013-06-26 17:23:00,
2013-06-26 12:28:00,80.6,68.0,29.69,WNW,300,0.0,10.0,65,0.00,,,0.00,WUHU216DAVISVP2,2013-06-26 17:28:00,
2013-06-26 12:33:00,80.8,67.3,29.69,WNW,292,1.0,4.0,63,0.00,,,0.00,WUHU216DAVISVP2,2013-06-26 17:33:00,
2013-06-26 12:38:00,80.8,67.3,29.69,West,279,5.0,7.0,63,0.00,,,0.00,WUHU216DAVISVP2,2013-06-26 17:38:00,
2013-06-26 12:43:00,81.8,68.2,29.69,West,271,0.0,7.0,63,0.00,,,0.00,WUHU216DAVISVP2,2013-06-26 17:43:00,
2013-06-26 12:48:00,81.9,68.3,29.69,West,277,1.0,6.0,63,0.00,,,0.00,WUHU216DAVISVP2,2013-06-26 17:48:00,
2013-06-26 12:53:00,81.7,66.7,29.69,NW,304,0.0,6.0,60,0.00,,,0.00,WUHU216DAVISVP2,2013-06-26 17:53:00,
2013-06-26 12:58:00,81.3,68.2,29.69,NW,306,0.0,5.0,64,0.00,,,0.00,WUHU216DAVISVP2,2013-06-26 17:58:00,
2013-06-26 13:03:00,82.1,68.0,29.69,WNW,284,1.0,3.0,62,0.00,,,0.00,WUHU216DAVISVP2,2013-06-26 18:03:00,
2013-06-26 13:08:00,82.8,68.7,29.69,West,259,0.0,4.0,62,0.00,,,0.00,WUHU216DAVISVP2,2013-06-26 18:08:00,
2013-06-26 13:13:00,83.5,67.9,29.69,West,263,1.0,10.0,59,0.00,,,0.00,WUHU216DAVISVP2,2013-06-26 18:13:00,
2013-06-26 13:18:00,84.0,68.4,29.69,West,277,0.0,10.0,59,0.00,,,0.00,WUHU216DAVISVP2,2013-06-26 18:18:00,
2013-06-26 13:23:00,84.3,67.6,29.69,WNW,284,2.0,6.0,57,0.00,,,0.00,WUHU216DAVISVP2,2013-06-26 18:23:00,
2013-06-26 13:28:00,84.7,68.5,29.70,West,265,1.0,9.0,58,0.00,,,0.00,WUHU216DAVISVP2,2013-06-26 18:28:00,
2013-06-26 13:33:00,84.7,68.0,29.69,West,277,0.0,9.0,57,0.00,,,0.00,WUHU216DAVISVP2,2013-06-26 18:33:00,
2013-06-26 13:38:00,84.4,67.7,29.69,WNW,291,0.0,9.0,57,0.00,,,0.00,WUHU216DAVISVP2,2013-06-26 18:38:00,
2013-06-26 13:43:00,83.8,66.1,29.69,West,264,6.0,11.0,55,0.00,,,0.00,WUHU216DAVISVP2,2013-06-26 18:43:00,
2013-06-26 13:48:00,84.5,68.3,29.69,West,275,0.0,11.0,58,0.00,,,0.00,WUHU216DAVISVP2,2013-06-26 18:48:00,
2013-06-26 13:53:00,84.4,67.2,29.69,NW,309,0.0,9.0,56,0.00,,,0.00,WUHU216DAVISVP2,2013-06-26 18:53:00,
2013-06-26 13:58:00,84.1,66.4,29.69,West,275,2.0,7.0,55,0.00,,,0.00,WUHU216DAVISVP2,2013-06-26 18:58:00,
2013-06-26 14:03:00,83.3,65.1,29.69,North,351,0.0,7.0,54,0.00,,,0.00,WUHU216DAVISVP2,2013-06-26 19:03:00,
2013-06-26 14:08:00,83.6,66.5,29.69,West,269,2.0,6.0,56,0.00,,,0.00,WUHU216DAVISVP2,2013-06-26 19:08:00,
2013-06-26 14:13:00,85.4,66.0,29.69,West,263,3.0,9.0,52,0.00,,,0.00,WUHU216DAVISVP2,2013-06-26 19:13:00,
2013-06-26 14:18:00,86.0,65.3,29.69,West,266,0.0,9.0,50,0.00,,,0.00,WUHU216DAVISVP2,2013-06-26 19:18:00,
2013-06-26 14:23:00,85.9,65.3,29.69,WNW,284,0.0,7.0,50,0.00,,,0.00,WUHU216DAVISVP2,2013-06-26 19:23:00,
2013-06-26 14:28:00,86.3,64.4,29.69,West,271,0.0,10.0,48,0.00,,,0.00,WUHU216DAVISVP2,2013-06-26 19:28:00,
2013-06-26 14:33:00,85.6,63.8,29.69,WNW,283,1.0,10.0,48,0.00,,,0.00,WUHU216DAVISVP2,2013-06-26 19:33:00,
2013-06-26 14:38:00,85.5,63.1,29.69,WNW,288,0.0,8.0,47,0.00,,,0.00,WUHU216DAVISVP2,2013-06-26 19:38:00,
2013-06-26 14:43:00,85.6,63.8,29.69,West,275,0.0,6.0,48,0.00,,,0.00,WUHU216DAVISVP2,2013-06-26 19:43:00,
2013-06-26 14:48:00,85.7,63.2,29.69,WNW,292,0.0,5.0,47,0.00,,,0.00,WUHU216DAVISVP2,2013-06-26 19:48:00,
2013-06-26 14:53:00,85.9,63.4,29.69,West,272,1.0,4.0,47,0.00,,,0.00,WUHU216DAVISVP2,2013-06-26 19:53:00,
2013-06-26 14:58:00,86.5,63.3,29.69,WNW,294,0.0,6.0,46,0.00,,,0.00,WUHU216DAVISVP2,2013-06-26 19:58:00,
2013-06-26 15:03:00,85.9,62.2,29.68,NNW,344,0.0,6.0,45,0.00,,,0.00,WUHU216DAVISVP2,2013-06-26 20:03:00,
2013-06-26 15:08:00,85.5,63.1,29.68,WNW,292,0.0,7.0,47,0.00,,,0.00,WUHU216DAVISVP2,2013-06-26 20:08:00,
2013-06-26 15:13:00,85.9,62.2,29.69,WNW,302,0.0,7.0,45,0.00,,,0.00,WUHU216DAVISVP2,2013-06-26 20:13:00,
2013-06-26 15:18:00,85.7,63.2,29.69,WNW,299,2.0,7.0,47,0.00,,,0.00,WUHU216DAVISVP2,2013-06-26 20:18:00,
2013-06-26 15:23:00,85.5,62.4,29.69,WNW,288,2.0,6.0,46,0.00,,,0.00,WUHU216DAVISVP2,2013-06-26 20:23:00,
2013-06-26 15:28:00,86.4,62.6,29.69,West,264,4.0,6.0,45,0.00,,,0.00,WUHU216DAVISVP2,2013-06-26 20:28:00,
2013-06-26 15:33:00,86.7,63.5,29.69,NW,307,0.0,7.0,46,0.00,,,0.00,WUHU216DAVISVP2,2013-06-26 20:33:00,
2013-06-26 15:38:00,87.1,63.2,29.69,WNW,288,0.0,7.0,45,0.00,,,0.00,WUHU216DAVISVP2,2013-06-26 20:38:00,
2013-06-26 15:43:00,86.7,63.5,29.69,WNW,294,1.0,6.0,46,0.00,,,0.00,WUHU216DAVISVP2,2013-06-26 20:43:00,
2013-06-26 15:48:00,86.1,63.0,29.69,WNW,296,0.0,4.0,46,0.00,,,0.00,WUHU216DAVISVP2,2013-06-26 20:48:00,
2013-06-26 15:53:00,86.1,64.2,29.69,WNW,294,0.0,3.0,48,0.00,,,0.00,WUHU216DAVISVP2,2013-06-26 20:53:00,
2013-06-26 15:58:00,86.0,62.9,29.68,WNW,298,2.0,3.0,46,0.00,,,0.00,WUHU216DAVISVP2,2013-06-26 20:58:00,
2013-06-26 16:03:00,86.8,64.3,29.68,WNW,299,4.0,4.0,47,0.00,,,0.00,WUHU216DAVISVP2,2013-06-26 21:03:00,
2013-06-26 16:08:00,87.2,63.3,29.68,WNW,286,2.0,4.0,45,0.00,,,0.00,WUHU216DAVISVP2,2013-06-26 21:08:00,
2013-06-26 16:13:00,87.4,63.5,29.68,WNW,287,0.0,4.0,45,0.00,,,0.00,WUHU216DAVISVP2,2013-06-26 21:13:00,
2013-06-26 16:18:00,87.4,64.2,29.69,WNW,286,1.0,3.0,46,0.00,,,0.00,WUHU216DAVISVP2,2013-06-26 21:18:00,
2013-06-26 16:23:00,86.8,61.6,29.68,NNE,19,3.0,4.0,43,0.00,,,0.00,WUHU216DAVISVP2,2013-06-26 21:23:00,
2013-06-26 16:28:00,87.3,62.8,29.68,WNW,282,1.0,7.0,44,0.00,,,0.00,WUHU216DAVISVP2,2013-06-26 21:28:00,
2013-06-26 16:33:00,87.0,62.5,29.68,NNE,32,1.0,7.0,44,0.00,,,0.00,WUHU216DAVISVP2,2013-06-26 21:33:00,
2013-06-26 16:38:00,87.3,62.1,29.68,West,275,2.0,6.0,43,0.00,,,0.00,WUHU216DAVISVP2,2013-06-26 21:38:00,
2013-06-26 16:43:00,88.1,61.4,29.69,West,277,6.0,9.0,41,0.00,,,0.00,WUHU216DAVISVP2,2013-06-26 21:43:00,
2013-06-26 16:48:00,88.7,61.3,29.69,West,263,0.0,9.0,40,0.00,,,0.00,WUHU216DAVISVP2,2013-06-26 21:48:00,
2013-06-26 16:53:00,89.2,61.7,29.69,West,267,0.0,6.0,40,0.00,,,0.00,WUHU216DAVISVP2,2013-06-26 21:53:00,
2013-06-26 16:58:00,88.3,62.3,29.69,West,267,0.0,5.0,42,0.00,,,0.00,WUHU216DAVISVP2,2013-06-26 21:58:00,
2013-06-26 17:03:00,87.7,63.1,29.69,SW,225,0.0,3.0,44,0.00,,,0.00,WUHU216DAVISVP2,2013-06-26 22:03:00,
2013-06-26 17:08:00,87.7,63.8,29.69,SW,226,0.0,3.0,45,0.00,,,0.00,WUHU216DAVISVP2,2013-06-26 22:08:00,
2013-06-26 17:13:00,87.3,62.1,29.69,SW,226,0.0,2.0,43,0.00,,,0.00,WUHU216DAVISVP2,2013-06-26 22:13:00,
2013-06-26 17:18:00,86.7,63.5,29.69,SW,226,0.0,2.0,46,0.00,,,0.00,WUHU216DAVISVP2,2013-06-26 22:18:00,
2013-06-26 17:23:00,86.3,61.9,29.69,SW,226,0.0,2.0,44,0.00,,,0.00,WUHU216DAVISVP2,2013-06-26 22:23:00,
2013-06-26 17:28:00,85.8,62.1,29.69,SW,226,0.0,0.0,45,0.00,,,0.00,WUHU216DAVISVP2,2013-06-26 22:28:00,
2013-06-26 17:33:00,85.3,62.9,29.69,SW,226,0.0,0.0,47,0.00,,,0.00,WUHU216DAVISVP2,2013-06-26 22:33:00,
2013-06-26 17:38:00,85.2,62.2,29.69,SW,226,0.0,0.0,46,0.00,,,0.00,WUHU216DAVISVP2,2013-06-26 22:38:00,
2013-06-26 17:43:00,85.2,64.0,29.69,SW,226,0.0,1.0,49,0.00,,,0.00,WUHU216DAVISVP2,2013-06-26 22:43:00,
2013-06-26 17:48:00,84.9,62.5,29.69,SW,226,0.0,1.0,47,0.00,,,0.00,WUHU216DAVISVP2,2013-06-26 22:48:00,
2013-06-26 17:53:00,84.7,62.9,29.69,SW,226,0.0,0.0,48,0.00,,,0.00,WUHU216DAVISVP2,2013-06-26 22:53:00,
2013-06-26 17:58:00,84.4,62.1,29.68,SW,227,0.0,0.0,47,0.00,,,0.00,WUHU216DAVISVP2,2013-06-26 22:58:00,
2013-06-26 18:03:00,84.6,63.5,29.68,SW,227,0.0,0.0,49,0.00,,,0.00,WUHU216DAVISVP2,2013-06-26 23:03:00,
2013-06-26 18:08:00,84.5,61.5,29.68,SW,227,0.0,0.0,46,0.00,,,0.00,WUHU216DAVISVP2,2013-06-26 23:08:00,
2013-06-26 18:13:00,84.5,63.4,29.68,SW,227,0.0,0.0,49,0.00,,,0.00,WUHU216DAVISVP2,2013-06-26 23:13:00,
2013-06-26 18:18:00,84.5,62.1,29.68,SW,227,0.0,0.0,47,0.00,,,0.00,WUHU216DAVISVP2,2013-06-26 23:18:00,
2013-06-26 18:23:00,84.9,63.7,29.68,SW,227,0.0,0.0,49,0.00,,,0.00,WUHU216DAVISVP2,2013-06-26 23:23:00,
2013-06-26 18:28:00,85.0,62.0,29.68,SW,227,0.0,0.0,46,0.00,,,0.00,WUHU216DAVISVP2,2013-06-26 23:28:00,
2013-06-26 18:33:00,85.0,63.2,29.68,SW,227,0.0,0.0,48,0.00,,,0.00,WUHU216DAVISVP2,2013-06-26 23:33:00,
2013-06-26 18:38:00,84.8,62.4,29.68,SW,227,0.0,0.0,47,0.00,,,0.00,WUHU216DAVISVP2,2013-06-26 23:38:00,
2013-06-26 18:43:00,84.6,64.1,29.68,SW,227,0.0,0.0,50,0.00,,,0.00,WUHU216DAVISVP2,2013-06-26 23:43:00,
2013-06-26 18:48:00,84.5,62.1,29.68,SW,227,0.0,0.0,47,0.00,,,0.00,WUHU216DAVISVP2,2013-06-26 23:48:00,
2013-06-26 18:53:00,84.5,63.4,29.68,SW,227,0.0,0.0,49,0.00,,,0.00,WUHU216DAVISVP2,2013-06-26 23:53:00,
2013-06-26 18:58:00,84.4,63.3,29.68,SW,227,0.0,0.0,49,0.00,,,0.00,WUHU216DAVISVP2,2013-06-26 23:58:00,
2013-06-26 19:03:00,84.4,62.7,29.68,SW,227,0.0,0.0,48,0.00,,,0.00,WUHU216DAVISVP2,2013-06-27 00:03:00,
2013-06-26 19:08:00,84.5,63.4,29.68,SW,227,0.0,0.0,49,0.00,,,0.00,WUHU216DAVISVP2,2013-06-27 00:08:00,
2013-06-26 19:13:00,84.5,62.1,29.67,SW,227,0.0,0.0,47,0.00,,,0.00,WUHU216DAVISVP2,2013-06-27 00:13:00,
2013-06-26 19:18:00,84.6,62.9,29.68,WSW,244,2.0,6.0,48,0.00,,,0.00,WUHU216DAVISVP2,2013-06-27 00:18:00,
2013-06-26 19:23:00,84.8,63.6,29.68,WSW,246,0.0,6.0,49,0.00,,,0.00,WUHU216DAVISVP2,2013-06-27 00:23:00,
2013-06-26 19:28:00,84.8,63.6,29.69,WSW,246,0.0,5.0,49,0.00,,,0.00,WUHU216DAVISVP2,2013-06-27 00:28:00,
2013-06-26 19:33:00,84.9,64.3,29.69,WSW,246,0.0,1.0,50,0.00,,,0.00,WUHU216DAVISVP2,2013-06-27 00:33:00,
2013-06-26 19:38:00,84.8,64.8,29.69,WSW,246,0.0,0.0,51,0.00,,,0.00,WUHU216DAVISVP2,2013-06-27 00:38:00,
2013-06-26 19:43:00,84.1,65.3,29.69,NNE,22,0.0,6.0,53,0.00,,,0.00,WUHU216DAVISVP2,2013-06-27 00:43:00,
2013-06-26 19:48:00,81.2,64.7,29.69,NNE,17,0.0,6.0,57,0.00,,,0.00,WUHU216DAVISVP2,2013-06-27 00:48:00,
2013-06-26 19:53:00,79.5,64.6,29.69,NE,46,0.0,5.0,60,0.00,,,0.00,WUHU216DAVISVP2,2013-06-27 00:53:00,
2013-06-26 19:58:00,78.6,64.3,29.69,North,10,0.0,2.0,61,0.00,,,0.00,WUHU216DAVISVP2,2013-06-27 00:58:00,
2013-06-26 20:03:00,77.8,63.0,29.70,NNE,18,0.0,1.0,60,0.00,,,0.00,WUHU216DAVISVP2,2013-06-27 01:03:00,
2013-06-26 20:08:00,77.7,63.4,29.69,NNE,18,0.0,1.0,61,0.00,,,0.00,WUHU216DAVISVP2,2013-06-27 01:08:00,
2013-06-26 20:13:00,77.7,62.9,29.69,NNE,18,0.0,0.0,60,0.00,,,0.00,WUHU216DAVISVP2,2013-06-27 01:13:00,
2013-06-26 20:18:00,77.9,63.1,29.69,NNE,18,0.0,0.0,60,0.00,,,0.00,WUHU216DAVISVP2,2013-06-27 01:18:00,
2013-06-26 20:23:00,78.0,63.2,29.69,NNE,18,0.0,0.0,60,0.00,,,0.00,WUHU216DAVISVP2,2013-06-27 01:23:00,
2013-06-26 20:28:00,78.1,63.8,29.69,NNE,18,0.0,0.0,61,0.00,,,0.00,WUHU216DAVISVP2,2013-06-27 01:28:00,
2013-06-26 20:33:00,78.1,63.8,29.70,NNE,18,0.0,0.0,61,0.00,,,0.00,WUHU216DAVISVP2,2013-06-27 01:33:00,
2013-06-26 20:38:00,78.0,63.2,29.70,NNE,18,0.0,0.0,60,0.00,,,0.00,WUHU216DAVISVP2,2013-06-27 01:38:00,
2013-06-26 20:43:00,77.9,63.1,29.70,NNE,18,0.0,0.0,60,0.00,,,0.00,WUHU216DAVISVP2,2013-06-27 01:43:00,
2013-06-26 20:48:00,77.8,63.0,29.69,NNE,18,0.0,0.0,60,0.00,,,0.00,WUHU216DAVISVP2,2013-06-27 01:48:00,
2013-06-26 20:53:00,77.7,62.9,29.69,NNE,18,0.0,0.0,60,0.00,,,0.00,WUHU216DAVISVP2,2013-06-27 01:53:00,
2013-06-26 20:58:00,77.6,63.3,29.69,NNE,18,0.0,0.0,61,0.00,,,0.00,WUHU216DAVISVP2,2013-06-27 01:58:00,
2013-06-26 21:03:00,77.7,63.9,29.70,NNE,18,0.0,0.0,62,0.00,,,0.00,WUHU216DAVISVP2,2013-06-27 02:03:00,
2013-06-26 21:08:00,77.8,64.0,29.70,NNE,18,0.0,0.0,62,0.00,,,0.00,WUHU216DAVISVP2,2013-06-27 02:08:00,
2013-06-26 21:13:00,77.8,64.4,29.70,NNE,18,0.0,0.0,63,0.00,,,0.00,WUHU216DAVISVP2,2013-06-27 02:13:00,
2013-06-26 21:18:00,77.7,64.3,29.70,NNE,18,0.0,0.0,63,0.00,,,0.00,WUHU216DAVISVP2,2013-06-27 02:18:00,
2013-06-26 21:23:00,77.6,63.8,29.70,NNE,18,0.0,0.0,62,0.00,,,0.00,WUHU216DAVISVP2,2013-06-27 02:23:00,
2013-06-26 21:28:00,77.5,63.7,29.70,NNE,18,0.0,0.0,62,0.00,,,0.00,WUHU216DAVISVP2,2013-06-27 02:28:00,
2013-06-26 21:33:00,77.4,64.0,29.70,NNE,18,0.0,0.0,63,0.00,,,0.00,WUHU216DAVISVP2,2013-06-27 02:33:00,
2013-06-26 21:38:00,77.3,64.0,29.70,NNE,18,0.0,0.0,63,0.00,,,0.00,WUHU216DAVISVP2,2013-06-27 02:38:00,
2013-06-26 21:43:00,77.1,63.8,29.70,NNE,18,0.0,1.0,63,0.00,,,0.00,WUHU216DAVISVP2,2013-06-27 02:43:00,
2013-06-26 21:48:00,77.0,64.1,29.71,NNE,18,0.0,1.0,64,0.00,,,0.00,WUHU216DAVISVP2,2013-06-27 02:48:00,
2013-06-26 21:53:00,76.8,63.5,29.71,NNE,18,0.0,0.0,63,0.00,,,0.00,WUHU216DAVISVP2,2013-06-27 02:53:00,
2013-06-26 21:58:00,76.6,63.7,29.71,NNE,18,0.0,0.0,64,0.00,,,0.00,WUHU216DAVISVP2,2013-06-27 02:58:00,
2013-06-26 22:03:00,76.4,63.5,29.72,NNE,18,0.0,0.0,64,0.00,,,0.00,WUHU216DAVISVP2,2013-06-27 03:03:00,
2013-06-26 22:08:00,76.1,63.7,29.72,West,259,0.0,1.0,65,0.00,,,0.00,WUHU216DAVISVP2,2013-06-27 03:08:00,
2013-06-26 22:13:00,75.8,63.4,29.72,West,259,0.0,1.0,65,0.00,,,0.00,WUHU216DAVISVP2,2013-06-27 03:13:00,
2013-06-26 22:18:00,75.6,63.7,29.72,West,259,0.0,0.0,66,0.00,,,0.00,WUHU216DAVISVP2,2013-06-27 03:18:00,
2013-06-26 22:23:00,75.4,63.5,29.72,West,259,0.0,0.0,66,0.00,,,0.00,WUHU216DAVISVP2,2013-06-27 03:23:00,
2013-06-26 22:28:00,75.2,63.7,29.72,West,259,0.0,0.0,67,0.00,,,0.00,WUHU216DAVISVP2,2013-06-27 03:28:00,
2013-06-26 22:33:00,75.0,63.5,29.72,West,259,0.0,0.0,67,0.00,,,0.00,WUHU216DAVISVP2,2013-06-27 03:33:00,
2013-06-26 22:38:00,74.9,63.4,29.72,West,259,0.0,0.0,67,0.00,,,0.00,WUHU216DAVISVP2,2013-06-27 03:38:00,
2013-06-26 22:43:00,74.8,63.3,29.72,West,259,0.0,2.0,67,0.00,,,0.00,WUHU216DAVISVP2,2013-06-27 03:43:00,
2013-06-26 22:48:00,74.7,63.6,29.72,WSW,258,0.0,2.0,68,0.00,,,0.00,WUHU216DAVISVP2,2013-06-27 03:48:00,
2013-06-26 22:53:00,74.6,63.5,29.73,WSW,246,0.0,2.0,68,0.00,,,0.00,WUHU216DAVISVP2,2013-06-27 03:53:00,
2013-06-26 22:58:00,74.4,63.4,29.73,WSW,248,0.0,2.0,68,0.00,,,0.00,WUHU216DAVISVP2,2013-06-27 03:58:00,
2013-06-26 23:01:00,74.3,63.3,29.73,WSW,248,0.0,0.0,68,0.00,,,0.00,WUHU216DAVISVP2,2013-06-27 04:01:00,
2013-06-26 23:06:00,74.0,63.4,29.73,WSW,254,0.0,2.0,69,0.00,,,0.00,WUHU216DAVISVP2,2013-06-27 04:06:00,
2013-06-26 23:11:00,73.8,63.2,29.73,WSW,256,0.0,2.0,69,0.00,,,0.00,WUHU216DAVISVP2,2013-06-27 04:11:00,
2013-06-26 23:16:00,73.5,63.3,29.73,WSW,256,0.0,0.0,70,0.00,,,0.00,WUHU216DAVISVP2,2013-06-27 04:16:00,
2013-06-26 23:21:00,73.3,63.1,29.73,WSW,252,0.0,0.0,70,0.00,,,0.00,WUHU216DAVISVP2,2013-06-27 04:21:00,
2013-06-26 23:26:00,73.1,63.3,29.73,WSW,252,0.0,0.0,71,0.00,,,0.00,WUHU216DAVISVP2,2013-06-27 04:26:00,
2013-06-26 23:31:00,72.9,63.5,29.73,WSW,251,0.0,0.0,72,0.00,,,0.00,WUHU216DAVISVP2,2013-06-27 04:31:00,
2013-06-26 23:36:00,72.7,63.3,29.73,WSW,250,0.0,0.0,72,0.00,,,0.00,WUHU216DAVISVP2,2013-06-27 04:36:00,
2013-06-26 23:41:00,72.5,63.1,29.73,WSW,256,0.0,4.0,72,0.00,,,0.00,WUHU216DAVISVP2,2013-06-27 04:41:00,
2013-06-26 23:46:00,72.4,63.4,29.73,WSW,253,0.0,4.0,73,0.00,,,0.00,WUHU216DAVISVP2,2013-06-27 04:46:00,
2013-06-26 23:51:00,72.2,63.2,29.73,WSW,253,0.0,1.0,73,0.00,,,0.00,WUHU216DAVISVP2,2013-06-27 04:51:00,
2013-06-26 23:56:00,72.0,63.0,29.73,WSW,254,0.0,0.0,73,0.00,,,0.00,WUHU216DAVISVP2,2013-06-27 04:56:00,